Regional Weather Roundup
Issued by NWS Midland/Odessa, TX

Skip options and go directly to product.
Home | Oldest Version | Previous Version | Current Version | All | Graphics & Text | Save Text | Print | Product List | Glossary On

Skip product version selection by date and time.   
331
ASUS44 KMAF 011010
RWRMAF
MIDLAND AREA WEATHER ROUNDUP
NATIONAL WEATHER SERVICE MIDLAND TX
500 AM CDT SUN MAY 01 2016

...IN SOUTHWEST TEXAS AND SOUTHEAST NEW MEXICO...

CITY           SKY/WX    TMP DP  RH WIND       PRES   REMARKS
ALPINE         CLEAR     62  29  28 S8        29.88R
ANDREWS        CLOUDY    52  36  53 NE23G36   29.97R
ARTESIA        CLOUDY    50  34  53 NE17G26   30.02R
BIG SPRING     MOCLDY    55  40  58 N24G33    29.96R
CARLSBAD       CLOUDY    53  36  52 N26G32    29.97R
DRYDEN           N/A     66  52  60 E15G24    29.78R
FORT STOCKTON  CLEAR     60  42  51 E15       29.81R
GUAD PASS      CLEAR     48  39  71 NE49G61   29.88R WCI  37
HOBBS          CLOUDY    48  32  53 NE29G37   29.98S WCI  40
MARFA          CLEAR     41  25  53 NW8       29.87R WCI  36
MIDLAND AIRPK  PTCLDY    56  41  55 NE23      29.94R
MIDLAND INTL   CLEAR     57  41  55 NE22G36   29.92R
ODESSA         CLEAR     56  40  55 NE24G37   29.93R
PECOS          CLEAR     62  45  53 NE20G26   29.84R
PRESIDIO       FAIR      64  24  22 MISG      29.74R
SEMINOLE       CLOUDY    50  34  53 NE20G25   30.00R
SNYDER           N/A     52  38  58 NE24G31   29.98S
WINK           PTCLDY    58  43  57 NE24G40   29.86R
$$
...OTHER STATIONS IN TEXAS...

CITY           SKY/WX    TMP DP  RH WIND       PRES   REMARKS
ABILENE        CLEAR     54  48  80 N13       29.97R
AMARILLO       CLOUDY    41  33  73 N20G30    30.10S WCI  32
AUSTIN         PTCLDY    66  64  93 N6        29.82R
BROWNSVILLE    CLOUDY    77  77 100 E6        29.71R FOG
CORPUS CHRISTI CLOUDY    79  74  84 E10       29.72S
DALLAS FTW     CLEAR     61  52  72 N14       29.89S
DEL RIO        CLOUDY    65  60  84 CALM      29.78R
EL PASO        PTCLDY    61  29  29 E7        29.82R
HOUSTON INT    CLOUDY    71  70  96 N9        29.79S
LUBBOCK        CLOUDY    46  33  60 N23G31    30.04S WCI  38
SAN ANGELO     CLEAR     57  52  83 NE12      29.89R
SAN ANTONIO    PTCLDY    69  64  84 NE13      29.80R
WACO           CLEAR     60  59  96 N6        29.87R
WICHITA FALLS  NOT AVBL
$$
...OTHER LOCATIONS IN NEW MEXICO...

CITY           SKY/WX    TMP DP  RH WIND       PRES   REMARKS
ALAMAGORDO     PTCLDY    59  25  27 CALM      29.81R
ALBUQUERQUE    CLOUDY    43  32  65 E35G45    29.93R WCI  32
CANNON AFB     NOT AVBL
CLOVIS         CLOUDY    39  30  70 N26G35    30.10R WCI  28
HOLLOMAN AFB   PTCLDY    60  31  33 E5        29.80R
ROSWELL        CLOUDY    47  33  58 NE21G26   30.04R WCI  39
RUIDOSO        MIX PCPN  34  32  93 SE13      30.07S WCI  25
SANTA FE       CLOUDY    39  37  92 N9        30.00R WCI  33
TRUTH OR CONSE MOCLDY    50  36  58 N21G30    29.84R
TUCUMCARI      CLOUDY    40  34  79 NE9       30.12F WCI  34
$$

USA.gov is the U.S. government's official web portal to all federal, state and local government web resources and services.